Location: *
(48.8667°N, 2.3331°E)
Time: 07:56:24
(UTC+00:00)

Cosmos 1953 Rocket - Visible Passes

Search period start: 11 August 2020 00:00
Search period end: 21 August 2020 00:00
Orbit: 605 x 634 km, 82.5° (Epoch: 10 August)

Date Brightness Start Highest point End Pass type
(mag) Time Alt. Az. Time Alt. Az. Time Alt. Az.
11 Aug 6.8 01:53:03 10° NE 01:54:03 11° ENE 01:55:04 10° ENE visible
11 Aug 3.8 03:28:15 10° N 03:32:46 78° E 03:37:14 10° SSE visible
12 Aug 6.4 02:08:55 10° NNE 02:11:56 17° ENE 02:14:57 10° ESE visible
12 Aug 3.7 03:45:49 10° NNW 03:50:16 60° W 03:54:39 10° S visible
13 Aug 5.6 02:25:49 10° N 02:29:44 28° ENE 02:33:35 10° SE visible
13 Aug 4.3 04:03:35 10° NNW 04:07:39 34° W 04:11:39 10° SSW visible
14 Aug 4.6 02:43:02 10° N 02:47:25 47° ENE 02:51:43 10° SSE visible
15 Aug 6.6 01:24:54 10° NE 01:26:19 11° ENE 01:27:42 10° ENE visible
15 Aug 3.6 03:00:27 10° N 03:04:58 83° ENE 03:09:26 10° S visible
16 Aug 6.2 01:41:02 10° NNE 01:44:11 18° ENE 01:47:18 10° ESE visible
16 Aug 3.7 03:18:03 10° NNW 03:22:28 56° W 03:26:48 10° S visible
17 Aug 5.4 01:57:59 10° N 02:01:57 30° ENE 02:05:52 10° SE visible
17 Aug 4.4 03:35:51 10° NNW 03:39:50 32° W 03:43:46 10° SSW visible
18 Aug 4.4 02:15:14 10° N 02:19:37 50° ENE 02:23:14 14° SSE visible
18 Aug 5.1 03:53:58 10° NW 03:57:06 19° W 04:00:13 10° SW visible
19 Aug 6.4 00:56:51 10° NE 00:58:33 12° ENE 01:00:14 10° E visible
19 Aug 3.5 02:32:40 10° N 02:37:11 88° E 02:39:51 24° S visible
19 Aug 5.6 04:13:06 10° WNW 04:14:17 11° W 04:15:29 10° W visible
20 Aug 6.0 01:13:10 10° NNE 01:16:26 19° ENE 01:19:27 11° ESE visible
20 Aug 3.7 02:50:17 10° NNW 02:54:39 52° W 02:56:33 30° SSW visible
